Location: Artiguedieu
(43.5000°N, 0.5454°E)
Time: 09:44:34
(UTC+00:00)

Explorer 7 - Pass Details

Date: 09 August 2021
Orbit: 484 x 676 km, 50.3° (Epoch: 22 September)

Event Time Altitude Azimuth Distance (km) Brightness Sun altitude
Rises 02:26:21 0° 244° (WSW) 2,543 - -22.3°
Reaches altitude 10° 02:28:31 10° 246° (WSW) 1,660 - -22.0°
Exits shadow 02:32:11 76° 320° (NW) 504 6.5 -21.6°
Maximum altitude 02:32:15 76° 332° (NNW) 503 6.5 -21.6°
Drops below altitude 10° 02:36:03 10° 59° (ENE) 1,687 10.3 -21.2°
Sets 02:38:16 0° 61° (ENE) 2,589 11.5 -20.9°
